User: anonymous   Login
Location: Unspecified
(0.0000°N, 0.0000°E)
Time: 21:58:33
(UTC+00:00)
Language:

COSMOS 2378 - Orbit

View from above orbital plane
View from above orbital plane
View from above satellite
View from above satellite

Ground track
Ground track

The orbit data is extracted from the following two-line orbital elements,

1 26818U 01023A   18018.23665421  .00000029  00000-0  15600-4 0  9995
2 26818  82.9293 338.0312 0032493 322.8877  37.0028 13.73922425833066
Epoch (UTC): 18 January 2018 05:40:46
Eccentricity: 0.0032493
inclination: 82.9293°
perigee height: 961 km
apogee height: 1009 km
right ascension of ascending node: 338.0312°
argument of perigee: 322.8877°
revolutions per day: 13.73922425
mean anomaly at epoch: 37.0028°
orbit number at epoch: 83306

The dashed part of the orbit path shows where the satellite is in the earth's shadow,  

DLR